Details From EGNM - Leeds Bradford
To EGCK - Caernarfon
Flight Number -
Tags Decoded
Created
Modified
Stats Distance 106 nm / 197 km
Max Altitude 0 ft / 0 m
Waypoints 2
Social Downloads 1
Likes 0
Share VATSIM

Download

Looking for another format? Having issues loading an existing format? Contact us
Advertisement - Login to hide

Notes

Decoded

Route

EGNM EGCK

ID Type Via Altitude Latitude Longitude Leg Dist Tot Dist Heading (true) Name
O EGNM APT - 0 ft / 0 m 53.87335˚ -1.67205˚ - 0 nm - -
O EGCK APT - 0 ft / 0 m 53.10056˚ -4.34333˚ 106 nm 106 nm 245° / 243° Caernarfon

Altitude Profile

Advertisement - Login to hide

EGNM

Details ICAO EGNM (LBA)
Name Leeds Bradford
Region United Kingdom
Timezone Europe/London (UTC+0.0)
Stats Elevation 681 ft / 208 m (AMSL)
Location 53.866027° -1.660778°
Runways 1
Magnetic Variation 1.299° W

METAR

EGNM 130820Z 20008KT 9999 -RA FEW010 BKN015 04/03 Q0993

Decode

TAF

TAF TAF EGNM 130456Z 1306/1406 23012KT 9999 SCT015 TEMPO 1306/1318 7000 SHRA BKN012 TEMPO 1306/1309 23020G30KT BECMG 1309/1312 27018G30KT PROB40 TEMPO 1311/1406 27025G40KT PROB30 TEMPO 1312/1314 3000 +SHRA BKN009 TEMPO 1318/1406 4000 SHRASN BKN009 PROB30 TEMPO 1318/1406 1200 +SHRASN SHSN BKN002 BKN015CB

Decode

Departure Runways

ID Width Length Bearing (true) Bearing (mag) Surface Threshold Offset Overrun Length
14 151 ft / 46 m 7,377 ft / 2,248 m 137.79° 139.09° Concrete 1,024 ft / 312 m 46 ft / 14 m
32 151 ft / 46 m 7,377 ft / 2,248 m 317.81° 319.11° Concrete 899 ft / 274 m 49 ft / 15 m

EGCK

Details ICAO EGCK
Name Caernarfon
Region United Kingdom
Timezone Europe/London (UTC+0.0)
Stats Elevation 13 ft / 4 m (AMSL)
Location 53.103081° -4.338717°
Runways 2
Magnetic Variation 2.211° W

METAR

EGCK 130820Z AUTO 23022KT 9999 -RA SCT020/// OVC036/// 09/06 Q0995

Decode

TAF

Not found

Destination Runways

ID Width Length Bearing (true) Bearing (mag) Surface Threshold Offset Overrun Length
02 75 ft / 23 m 3,499 ft / 1,066 m 13.18° 15.39° Asphalt 253 ft / 77 m 3 ft / 1 m
08 75 ft / 23 m 2,995 ft / 913 m 70.77° 72.98° Asphalt 151 ft / 46 m 0 ft / 0 m
20 75 ft / 23 m 3,499 ft / 1,066 m 193.18° 195.39° Asphalt 0 ft / 0 m 0 ft / 0 m
26 75 ft / 23 m 2,995 ft / 913 m 250.78° 252.99° Asphalt 266 ft / 81 m 0 ft / 0 m

Popular Alternatives